• în România
  • Lista ţărilor
  • Pe 7 zile
  • Temperatura apei
  • Hartă satelitară
  • Meteo pe hartă
  • Widget-uri
  • user-avatar
    Intrare

    Meteo pe oră la Buzău

    Astăzi, 21 Octombrie, Sâmbătă

    Timp Temperatura Precipitaţii Vânt Presiune Umiditate
    00:00 +18°C° 0 mm 1 m/s 755 mmHg 46%
    01:00 +16°C° 0 mm 1 m/s 755 mmHg 46%
    02:00 +15°C° 0 mm 1 m/s 755 mmHg 52%
    03:00 +15°C° 0 mm 1 m/s 755 mmHg 53%
    04:00 +15°C° 0 mm 1 m/s 755 mmHg 54%
    05:00 +14°C° 0 mm 1 m/s 755 mmHg 55%
    06:00 +15°C° 0 mm 1 m/s 755 mmHg 54%
    07:00 +15°C° 0 mm 1 m/s 755 mmHg 54%
    08:00 +16°C° 0 mm 1 m/s 755 mmHg 53%
    09:00 +19°C° 0 mm 1 m/s 755 mmHg 48%
    10:00 +21°C° 0 mm 1 m/s 754 mmHg 43%
    11:00 +23°C° 0 mm 1 m/s 754 mmHg 38%
    12:00 +23°C° 0 mm 1 m/s 754 mmHg 36%
    13:00 +24°C° 0 mm 2 m/s 753 mmHg 34%
    14:00 +25°C° 0 mm 2 m/s 753 mmHg 32%
    15:00 +24°C° 0 mm 2 m/s 752 mmHg 36%
    16:00 +23°C° 0 mm 2 m/s 752 mmHg 39%
    17:00 +21°C° 0 mm 2 m/s 752 mmHg 43%
    18:00 +20°C° 0 mm 2 m/s 752 mmHg 44%
    19:00 +19°C° 0 mm 2 m/s 752 mmHg 45%
    20:00 +18°C° 0 mm 2 m/s 751 mmHg 46%
    21:00 +18°C° 0 mm 2 m/s 751 mmHg 46%
    22:00 +18°C° 0 mm 2 m/s 751 mmHg 46%
    23:00 +18°C° 0 mm 2 m/s 751 mmHg 46%

    Mâine, 22 Octombrie, Duminică

    Timp Temperatura Precipitaţii Vânt Presiune Umiditate
    00:00 +18°C° 0 mm 2 m/s 751 mmHg 48%
    01:00 +17°C° 0 mm 3 m/s 751 mmHg 50%
    02:00 +17°C° 0 mm 3 m/s 751 mmHg 52%
    03:00 +16°C° 0 mm 3 m/s 752 mmHg 57%
    04:00 +16°C° 0 mm 3 m/s 752 mmHg 62%
    05:00 +14°C° 0 mm 3 m/s 752 mmHg 66%
    06:00 +14°C° 0 mm 3 m/s 752 mmHg 67%
    07:00 +14°C° 0 mm 3 m/s 753 mmHg 67%
    08:00 +14°C° 0 mm 3 m/s 753 mmHg 68%
    09:00 +16°C° 0 mm 3 m/s 753 mmHg 62%
    10:00 +18°C° 0 mm 3 m/s 753 mmHg 55%
    11:00 +19°C° 0 mm 3 m/s 754 mmHg 49%
    12:00 +19°C° 0 mm 3 m/s 753 mmHg 47%
    13:00 +20°C° 0 mm 3 m/s 753 mmHg 45%
    14:00 +20°C° 0 mm 2 m/s 753 mmHg 43%
    15:00 +19°C° 0 mm 2 m/s 753 mmHg 47%
    16:00 +19°C° 0 mm 2 m/s 753 mmHg 50%
    17:00 +18°C° 0 mm 2 m/s 753 mmHg 53%
    18:00 +17°C° 0 mm 3 m/s 753 mmHg 56%
    19:00 +16°C° 0 mm 3 m/s 754 mmHg 59%
    20:00 +16°C° 0 mm 3 m/s 754 mmHg 62%
    21:00 +14°C° 0 mm 3 m/s 754 mmHg 65%
    22:00 +13°C° 0 mm 3 m/s 754 mmHg 68%
    23:00 +13°C° 0 mm 3 m/s 754 mmHg 71%

    Poimâine, 23 Octombrie, Luni

    Timp Temperatura Precipitaţii Vânt Presiune Umiditate
    00:00 +12°C° 0 mm 3 m/s 754 mmHg 73%
    01:00 +12°C° 0 mm 3 m/s 753 mmHg 74%
    02:00 +12°C° 0 mm 2 m/s 753 mmHg 75%
    03:00 +12°C° 0 mm 2 m/s 753 mmHg 76%
    04:00 +12°C° 0 mm 2 m/s 752 mmHg 76%
    05:00 +10°C° 0 mm 2 m/s 752 mmHg 77%
    06:00 +11°C° 0 mm 3 m/s 751 mmHg 77%
    07:00 +11°C° 0 mm 3 m/s 751 mmHg 77%
    08:00 +11°C° 0 mm 3 m/s 751 mmHg 77%
    09:00 +12°C° 0 mm 3 m/s 751 mmHg 75%
    10:00 +13°C° 0 mm 4 m/s 750 mmHg 73%
    11:00 +13°C° 0 mm 4 m/s 750 mmHg 71%
    12:00 +14°C° 0,2 mm 4 m/s 750 mmHg 72%
    13:00 +14°C° 0,2 mm 4 m/s 749 mmHg 73%
    14:00 +14°C° 0,2 mm 4 m/s 749 mmHg 74%
    15:00 +14°C° 0,3 mm 4 m/s 749 mmHg 76%
    16:00 +14°C° 0,3 mm 5 m/s 749 mmHg 77%
    17:00 +13°C° 0,3 mm 5 m/s 748 mmHg 79%
    18:00 +13°C° 0,3 mm 5 m/s 748 mmHg 80%
    19:00 +13°C° 0,3 mm 5 m/s 748 mmHg 82%
    20:00 +11°C° 0,3 mm 6 m/s 748 mmHg 84%
    21:00 +11°C° 0,5 mm 6 m/s 748 mmHg 85%
    22:00 +11°C° 0,5 mm 6 m/s 748 mmHg 87%
    23:00 +11°C° 0,5 mm 6 m/s 748 mmHg 89%

    24 Octombrie, Marţi

    Timp Temperatura Precipitaţii Vânt Presiune Umiditate
    00:00 +12°C° 0,6 mm 5 m/s 748 mmHg 89%
    01:00 +12°C° 0,6 mm 5 m/s 748 mmHg 90%
    02:00 +12°C° 0,6 mm 5 m/s 748 mmHg 90%
    03:00 +12°C° 0,6 mm 5 m/s 748 mmHg 90%
    04:00 +13°C° 0,6 mm 6 m/s 748 mmHg 89%
    05:00 +13°C° 0,6 mm 6 m/s 748 mmHg 89%
    06:00 +12°C° 0,4 mm 7 m/s 749 mmHg 87%
    07:00 +12°C° 0,4 mm 7 m/s 749 mmHg 85%
    08:00 +12°C° 0,4 mm 8 m/s 749 mmHg 84%
    09:00 +11°C° 0,1 mm 8 m/s 750 mmHg 82%
    10:00 +11°C° 0,1 mm 9 m/s 751 mmHg 80%
    11:00 +10°C° 0,1 mm 9 m/s 751 mmHg 78%
    12:00 +10°C° 0,3 mm 9 m/s 751 mmHg 77%
    13:00 +10°C° 0,3 mm 9 m/s 752 mmHg 75%
    14:00 +8°C° 0,3 mm 10 m/s 752 mmHg 73%
    15:00 +8°C° 0,1 mm 10 m/s 752 mmHg 72%
    16:00 +8°C° 0,1 mm 10 m/s 753 mmHg 70%
    17:00 +7°C° 0,1 mm 10 m/s 753 mmHg 68%
    18:00 +7°C° 0 mm 10 m/s 754 mmHg 67%
    19:00 +7°C° 0 mm 10 m/s 755 mmHg 66%
    20:00 +7°C° 0 mm 9 m/s 755 mmHg 65%
    21:00 +7°C° 0 mm 9 m/s 755 mmHg 64%
    22:00 +6°C° 0 mm 9 m/s 756 mmHg 63%
    23:00 +6°C° 0 mm 9 m/s 756 mmHg 62%

    25 Octombrie, Miercuri

    Timp Temperatura Precipitaţii Vânt Presiune Umiditate
    00:00 +6°C° 0 mm 9 m/s 756 mmHg 61%
    01:00 +6°C° 0 mm 9 m/s 756 mmHg 59%
    02:00 +6°C° 0 mm 10 m/s 756 mmHg 58%
    03:00 +6°C° 0,1 mm 10 m/s 756 mmHg 59%
    04:00 +5°C° 0,1 mm 10 m/s 757 mmHg 60%
    05:00 +5°C° 0,1 mm 10 m/s 757 mmHg 61%
    06:00 +5°C° 0,3 mm 10 m/s 757 mmHg 63%
    07:00 +3°C° 0,3 mm 10 m/s 757 mmHg 65%
    08:00 +3°C° 0,3 mm 10 m/s 757 mmHg 67%
    09:00 +3°C° 0,4 mm 10 m/s 757 mmHg 67%
    10:00 +3°C° 0,4 mm 10 m/s 758 mmHg 68%
    11:00 +3°C° 0,4 mm 10 m/s 758 mmHg 68%
    12:00 +3°C° 0,5 mm 10 m/s 758 mmHg 69%
    13:00 +3°C° 0,5 mm 10 m/s 758 mmHg 71%
    14:00 +2°C° 0,5 mm 9 m/s 758 mmHg 72%
    15:00 +2°C° 0,6 mm 10 m/s 758 mmHg 73%
    16:00 +2°C° 0,6 mm 10 m/s 758 mmHg 75%
    17:00 +2°C° 0,6 mm 10 m/s 758 mmHg 76%
    18:00 +1°C° 0,6 mm 10 m/s 758 mmHg 76%
    19:00 +1°C° 0,6 mm 10 m/s 758 mmHg 76%
    20:00 +1°C° 0,6 mm 10 m/s 759 mmHg 77%
    21:00 +1°C° 0,5 mm 10 m/s 759 mmHg 77%
    22:00 +1°C° 0,5 mm 10 m/s 759 mmHg 77%
    23:00 +1°C° 0,5 mm 10 m/s 759 mmHg 77%

    26 Octombrie, Joi

    Timp Temperatura Precipitaţii Vânt Presiune Umiditate
    00:00 +1°C° 0,5 mm 10 m/s 759 mmHg 77%
    01:00 +1°C° 0,5 mm 9 m/s 759 mmHg 77%
    02:00 +1°C° 0,5 mm 9 m/s 759 mmHg 77%
    03:00 +1°C° 0,5 mm 9 m/s 759 mmHg 78%
    04:00 0°C° 0,5 mm 8 m/s 760 mmHg 78%
    05:00 0°C° 0,5 mm 8 m/s 760 mmHg 79%
    06:00 0°C° 0,5 mm 8 m/s 760 mmHg 79%
    07:00 0°C° 0,5 mm 8 m/s 761 mmHg 79%
    08:00 0°C° 0,5 mm 7 m/s 761 mmHg 80%
    09:00 0°C° 0,4 mm 7 m/s 762 mmHg 80%
    10:00 0°C° 0,4 mm 7 m/s 762 mmHg 80%
    11:00 0°C° 0,4 mm 7 m/s 762 mmHg 80%
    12:00 0°C° 0,3 mm 7 m/s 762 mmHg 80%
    13:00 +1°C° 0,3 mm 6 m/s 762 mmHg 80%
    14:00 +2°C° 0,3 mm 6 m/s 762 mmHg 80%
    15:00 +2°C° 0,4 mm 6 m/s 763 mmHg 81%
    16:00 +2°C° 0,4 mm 6 m/s 763 mmHg 81%
    17:00 +2°C° 0,4 mm 5 m/s 763 mmHg 82%
    18:00 +2°C° 0,2 mm 5 m/s 763 mmHg 81%
    19:00 +2°C° 0,2 mm 5 m/s 764 mmHg 80%
    20:00 +3°C° 0,2 mm 4 m/s 764 mmHg 78%
    21:00 +1°C° 0 mm 4 m/s 764 mmHg 78%
    22:00 +1°C° 0 mm 4 m/s 764 mmHg 77%
    23:00 +1°C° 0 mm 4 m/s 765 mmHg 76%
    Arată mai mult